TOM37WS LXGB-EGKK

Flight info

Callsign TOM37WS
Flight time 2h 14m
Altitude 36000
Route DCT PIMOS N869 BLN N865 VTB N867 DGO/N0456F380 N867 NENEM DCT YURZI DCT ERIGA DCT ARTIV DCT REVTU/N0451F340 UP88 VASUX VASUX1G
Aircraft B737/M-SDE2E3FGHIRWXY/LB1

Departure

Time 2026-05-06 11:53
Airport Gibraltar Airport (LXGB)

Arrival

Time 2026-05-06 14:07
Airport London Gatwick Airport (EGKK)
Time Latitude Longitude Altitude Speed Heading
2026-05-06 11:34 36.15318 -5.34536 21 ft 0 kts 358°
2026-05-06 11:44 36.15299 -5.34534 21 ft 4 kts 354°
2026-05-06 11:45 36.15272 -5.34529 23 ft 4 kts 346°
2026-05-06 11:45 36.15248 -5.34518 22 ft 4 kts 328°
2026-05-06 11:45 36.15232 -5.34497 25 ft 4 kts 277°
2026-05-06 11:45 36.15231 -5.34491 24 ft 2 kts 267°
2026-05-06 11:48 36.15231 -5.34492 24 ft 0 kts 267°
2026-05-06 11:48 36.15233 -5.34494 24 ft 0 kts 291°
2026-05-06 11:48 36.15237 -5.34495 24 ft 1 kts 349°
2026-05-06 11:49 36.15240 -5.34491 23 ft 1 kts 51°
2026-05-06 11:49 36.15238 -5.34475 21 ft 6 kts 96°
2026-05-06 11:49 36.15236 -5.34375 20 ft 17 kts 88°
2026-05-06 11:49 36.15233 -5.34256 20 ft 7 kts 116°
2026-05-06 11:50 36.15205 -5.34238 19 ft 5 kts 173°
2026-05-06 11:50 36.15156 -5.34232 20 ft 9 kts 166°
2026-05-06 11:50 36.15141 -5.34210 18 ft 1 kts 84°
2026-05-06 11:50 36.15142 -5.34195 18 ft 3 kts 84°
2026-05-06 11:51 36.15145 -5.34158 18 ft 7 kts 85°
2026-05-06 11:51 36.15176 -5.34078 18 ft 14 kts 58°
2026-05-06 11:51 36.15165 -5.34011 20 ft 6 kts 160°
2026-05-06 11:51 36.15141 -5.34019 21 ft 1 kts 244°
2026-05-06 11:52 36.15149 -5.34070 19 ft 6 kts 271°
2026-05-06 11:52 36.15149 -5.34074 18 ft 0 kts 268°
2026-05-06 11:52 36.15145 -5.34191 18 ft 49 kts 268°
2026-05-06 11:52 36.15116 -5.34961 22 ft 127 kts 267°
2026-05-06 11:53 36.15050 -5.36280 276 ft 167 kts 263°
2026-05-06 11:53 36.14942 -5.37786 1032 ft 182 kts 257°
2026-05-06 11:53 36.14321 -5.39174 1919 ft 192 kts 225°
2026-05-06 11:53 36.13076 -5.39980 2508 ft 221 kts 194°
2026-05-06 11:54 36.11476 -5.39920 3215 ft 240 kts 168°
2026-05-06 11:54 36.09936 -5.39058 4154 ft 249 kts 146°
2026-05-06 11:54 36.08707 -5.37519 5039 ft 258 kts 123°
2026-05-06 11:54 36.08019 -5.35450 5905 ft 266 kts 99°
2026-05-06 11:55 36.08070 -5.33168 6818 ft 269 kts 74°
2026-05-06 11:55 36.08898 -5.31087 7644 ft 276 kts 53°
2026-05-06 11:55 36.09891 -5.28995 8222 ft 293 kts 74°
2026-05-06 11:55 36.10119 -5.26507 9148 ft 292 kts 86°
2026-05-06 11:56 36.10636 -5.24056 9899 ft 301 kts 60°
2026-05-06 11:56 36.11989 -5.22080 10562 ft 309 kts 36°
2026-05-06 11:56 36.13870 -5.20643 10974 ft 327 kts 30°
2026-05-06 11:56 36.15874 -5.19122 11305 ft 348 kts 31°
2026-05-06 11:57 36.17985 -5.17494 11595 ft 368 kts 31°
2026-05-06 11:57 36.20216 -5.15769 11855 ft 387 kts 31°
2026-05-06 11:57 36.22546 -5.13966 12226 ft 401 kts 30°
2026-05-06 11:57 36.24938 -5.12124 12765 ft 407 kts 30°
2026-05-06 11:58 36.27353 -5.10273 13480 ft 410 kts 30°
2026-05-06 11:58 36.29789 -5.08411 14076 ft 414 kts 30°
2026-05-06 11:58 36.32252 -5.06525 14677 ft 417 kts 30°
2026-05-06 11:58 36.34732 -5.04628 15243 ft 421 kts 30°
2026-05-06 11:59 36.37235 -5.02709 15825 ft 424 kts 30°
2026-05-06 11:59 36.39758 -5.00775 16384 ft 428 kts 30°
2026-05-06 11:59 36.42299 -4.98826 16938 ft 431 kts 30°
2026-05-06 11:59 36.44861 -4.96860 17472 ft 435 kts 30°
2026-05-06 12:00 36.47445 -4.94873 17998 ft 439 kts 30°
2026-05-06 12:00 36.50061 -4.92863 18429 ft 444 kts 30°
2026-05-06 12:00 36.52699 -4.90832 18887 ft 447 kts 30°
2026-05-06 12:00 36.55353 -4.88789 19327 ft 451 kts 30°
2026-05-06 12:01 36.58034 -4.86721 19738 ft 455 kts 30°
2026-05-06 12:01 36.60734 -4.84642 20187 ft 459 kts 30°
2026-05-06 12:01 36.63462 -4.82533 20566 ft 463 kts 30°
2026-05-06 12:01 36.66209 -4.80412 21038 ft 466 kts 29°
2026-05-06 12:02 36.68973 -4.78274 21449 ft 470 kts 29°
2026-05-06 12:02 36.71759 -4.76118 21867 ft 473 kts 29°
2026-05-06 12:02 36.74567 -4.73943 22240 ft 477 kts 29°
2026-05-06 12:02 36.76441 -4.72489 22495 ft 480 kts 29°
2026-05-06 12:03 36.79284 -4.70285 22905 ft 483 kts 29°
2026-05-06 12:03 36.82153 -4.68058 23318 ft 487 kts 29°
2026-05-06 12:03 36.85120 -4.66025 23645 ft 486 kts 19°
2026-05-06 12:03 36.88336 -4.64795 23995 ft 485 kts 12°
2026-05-06 12:04 36.91587 -4.63587 24318 ft 489 kts 13°
2026-05-06 12:04 36.94848 -4.62330 24681 ft 492 kts 14°
2026-05-06 12:04 36.98116 -4.61051 25018 ft 495 kts 14°
2026-05-06 12:04 37.01409 -4.59757 25354 ft 497 kts 14°
2026-05-06 12:05 37.04717 -4.58454 25668 ft 500 kts 14°
2026-05-06 12:05 37.08045 -4.57142 25986 ft 502 kts 13°
2026-05-06 12:05 37.11384 -4.55824 26315 ft 504 kts 13°
2026-05-06 12:05 37.14734 -4.54501 26637 ft 506 kts 13°
2026-05-06 12:06 37.18095 -4.53172 27070 ft 506 kts 13°
2026-05-06 12:06 37.21450 -4.51845 27488 ft 505 kts 13°
2026-05-06 12:06 37.24805 -4.50517 27924 ft 505 kts 13°
2026-05-06 12:06 37.28153 -4.49190 28359 ft 504 kts 13°
2026-05-06 12:07 37.31496 -4.47864 28775 ft 504 kts 13°
2026-05-06 12:07 37.34835 -4.46538 29193 ft 503 kts 13°
2026-05-06 12:07 37.38176 -4.45210 29613 ft 503 kts 13°
2026-05-06 12:07 37.41504 -4.43887 30060 ft 501 kts 13°
2026-05-06 12:08 37.44829 -4.42562 30407 ft 501 kts 12°
2026-05-06 12:08 37.48154 -4.41237 30719 ft 501 kts 12°
2026-05-06 12:08 37.51477 -4.39911 31053 ft 501 kts 12°
2026-05-06 12:08 37.54808 -4.38581 31369 ft 502 kts 12°
2026-05-06 12:09 37.58135 -4.37251 31693 ft 502 kts 12°
2026-05-06 12:09 37.61461 -4.35920 31995 ft 502 kts 12°
2026-05-06 12:09 37.64795 -4.34587 32315 ft 502 kts 12°
2026-05-06 12:09 37.68122 -4.33251 32619 ft 502 kts 12°
2026-05-06 12:10 37.71451 -4.31916 32926 ft 502 kts 12°
2026-05-06 12:10 37.74778 -4.30579 33216 ft 502 kts 12°
2026-05-06 12:10 37.78113 -4.29238 33512 ft 503 kts 12°
2026-05-06 12:10 37.81448 -4.27896 33782 ft 503 kts 12°
2026-05-06 12:11 37.84777 -4.26555 34062 ft 502 kts 12°
2026-05-06 12:11 37.88107 -4.25212 34357 ft 502 kts 12°
2026-05-06 12:11 37.91429 -4.23871 34636 ft 501 kts 12°
2026-05-06 12:11 37.94701 -4.22549 34892 ft 500 kts 12°
2026-05-06 12:12 37.98056 -4.21193 35164 ft 499 kts 12°
2026-05-06 12:12 38.01363 -4.19854 35426 ft 498 kts 12°
2026-05-06 12:12 38.04619 -4.18535 35678 ft 498 kts 12°
2026-05-06 12:12 38.07921 -4.17196 35877 ft 498 kts 12°
2026-05-06 12:13 38.14517 -4.14517 35905 ft 497 kts 12°
2026-05-06 12:13 38.21103 -4.11838 35901 ft 497 kts 12°
2026-05-06 12:14 38.27688 -4.09153 35907 ft 497 kts 12°
2026-05-06 12:14 38.34271 -4.06465 35904 ft 497 kts 12°
2026-05-06 12:15 38.40853 -4.03771 35913 ft 497 kts 12°
2026-05-06 12:15 38.47438 -4.01071 35910 ft 497 kts 12°
2026-05-06 12:16 38.54021 -3.98366 35917 ft 497 kts 12°
2026-05-06 12:16 38.60606 -3.95656 35926 ft 497 kts 13°
2026-05-06 12:17 38.67174 -3.92947 35920 ft 496 kts 13°
2026-05-06 12:17 38.73750 -3.90230 35916 ft 496 kts 13°
2026-05-06 12:18 38.80324 -3.87508 35921 ft 497 kts 13°
2026-05-06 12:18 38.86894 -3.84783 35929 ft 495 kts 13°
2026-05-06 12:19 38.93441 -3.82062 35923 ft 494 kts 13°
2026-05-06 12:19 38.99997 -3.79332 35929 ft 496 kts 13°
2026-05-06 12:20 39.06558 -3.76595 35949 ft 496 kts 13°
2026-05-06 12:20 39.13102 -3.73859 35924 ft 494 kts 13°
2026-05-06 12:21 39.19637 -3.71122 35929 ft 494 kts 13°
2026-05-06 12:21 39.26174 -3.68378 35927 ft 494 kts 13°
2026-05-06 12:22 39.32706 -3.65631 35956 ft 492 kts 13°
2026-05-06 12:22 39.39192 -3.62899 35935 ft 490 kts 13°
2026-05-06 12:23 39.45676 -3.60161 35936 ft 490 kts 13°
2026-05-06 12:23 39.52114 -3.57438 35940 ft 490 kts 13°
2026-05-06 12:24 39.58620 -3.54681 35942 ft 486 kts 13°
2026-05-06 12:24 39.65004 -3.51970 35949 ft 487 kts 13°
2026-05-06 12:25 39.71442 -3.49231 35955 ft 486 kts 13°
2026-05-06 12:25 39.77892 -3.46637 35929 ft 480 kts
2026-05-06 12:26 39.84455 -3.46018 35929 ft 474 kts 358°
2026-05-06 12:26 39.91039 -3.45514 35970 ft 474 kts 358°
2026-05-06 12:27 39.97626 -3.45055 35958 ft 474 kts 358°
2026-05-06 12:27 40.04193 -3.44600 35961 ft 471 kts 358°
2026-05-06 12:28 40.10743 -3.44146 35974 ft 471 kts 358°
2026-05-06 12:28 40.17293 -3.43691 35976 ft 471 kts 358°
2026-05-06 12:29 40.23844 -3.43234 35978 ft 471 kts 358°
2026-05-06 12:29 40.30384 -3.42778 35982 ft 471 kts 358°
2026-05-06 12:30 40.36934 -3.42320 35992 ft 471 kts 358°
2026-05-06 12:30 40.43482 -3.41862 36019 ft 471 kts 358°
2026-05-06 12:31 40.50004 -3.41404 35985 ft 468 kts 358°
2026-05-06 12:31 40.56520 -3.40946 35998 ft 469 kts 358°
2026-05-06 12:32 40.63037 -3.40487 35983 ft 469 kts 358°
2026-05-06 12:32 40.69555 -3.40027 35982 ft 469 kts 358°
2026-05-06 12:33 40.76067 -3.39566 35979 ft 469 kts 358°
2026-05-06 12:33 40.82585 -3.39104 35968 ft 469 kts 358°
2026-05-06 12:34 40.89099 -3.38642 35976 ft 468 kts 358°
2026-05-06 12:34 40.95599 -3.38180 35970 ft 468 kts 358°
2026-05-06 12:35 41.02101 -3.37716 35976 ft 468 kts 358°
2026-05-06 12:35 41.08599 -3.37252 35997 ft 468 kts 358°
2026-05-06 12:36 41.15089 -3.36788 35977 ft 467 kts 358°
2026-05-06 12:36 41.21583 -3.36322 35979 ft 467 kts 358°
2026-05-06 12:37 41.28068 -3.35856 36005 ft 467 kts 358°
2026-05-06 12:37 41.34555 -3.35389 35975 ft 466 kts 358°
2026-05-06 12:38 41.41024 -3.34923 36000 ft 466 kts 358°
2026-05-06 12:38 41.47497 -3.34454 35983 ft 466 kts 359°
2026-05-06 12:39 41.53967 -3.33986 35999 ft 465 kts 359°
2026-05-06 12:39 41.60418 -3.33518 35988 ft 464 kts 359°
2026-05-06 12:40 41.66869 -3.33049 35982 ft 464 kts 359°
2026-05-06 12:40 41.73315 -3.32579 35999 ft 464 kts 359°
2026-05-06 12:41 41.79756 -3.32109 35985 ft 463 kts 359°
2026-05-06 12:41 41.86182 -3.31639 35983 ft 463 kts 359°
2026-05-06 12:42 41.92619 -3.31167 35985 ft 463 kts 359°
2026-05-06 12:42 41.99044 -3.30695 35983 ft 462 kts 359°
2026-05-06 12:43 42.05463 -3.30223 35986 ft 462 kts 359°
2026-05-06 12:43 42.11879 -3.29749 35983 ft 462 kts 359°
2026-05-06 12:44 42.18297 -3.29275 35999 ft 461 kts 359°
2026-05-06 12:44 42.24695 -3.28801 36007 ft 461 kts 359°
2026-05-06 12:45 42.31101 -3.28326 36000 ft 461 kts 359°
2026-05-06 12:46 42.40657 -3.27615 36005 ft 459 kts 359°
2026-05-06 12:46 42.47035 -3.27140 36008 ft 459 kts 359°
2026-05-06 12:47 42.53417 -3.26663 36005 ft 459 kts 359°
2026-05-06 12:47 42.59796 -3.26185 36015 ft 459 kts 359°
2026-05-06 12:48 42.65124 -3.25785 36011 ft 458 kts 359°
2026-05-06 12:48 42.71490 -3.25307 36010 ft 458 kts 359°
2026-05-06 12:49 42.77854 -3.24828 36016 ft 458 kts 359°
2026-05-06 12:49 42.84215 -3.24348 36022 ft 458 kts 359°
2026-05-06 12:50 42.90574 -3.23867 36025 ft 458 kts 359°
2026-05-06 12:50 42.96941 -3.23384 36023 ft 458 kts 359°
2026-05-06 12:51 43.03298 -3.22901 36020 ft 456 kts 359°
2026-05-06 12:51 43.09640 -3.22419 36039 ft 457 kts 359°
2026-05-06 12:52 43.15988 -3.21935 36043 ft 457 kts 359°
2026-05-06 12:52 43.22289 -3.21453 36038 ft 457 kts 360°
2026-05-06 12:53 43.28632 -3.20967 36048 ft 457 kts 360°
2026-05-06 12:53 43.34974 -3.20481 36039 ft 456 kts 360°
2026-05-06 12:54 43.41320 -3.19993 36037 ft 456 kts
2026-05-06 12:54 43.47650 -3.19505 36046 ft 456 kts
2026-05-06 12:55 43.53988 -3.19016 36029 ft 456 kts
2026-05-06 12:55 43.60319 -3.18526 36050 ft 456 kts
2026-05-06 12:56 43.66652 -3.18035 36028 ft 455 kts
2026-05-06 12:56 43.72977 -3.17543 36028 ft 456 kts
2026-05-06 12:57 43.79305 -3.17051 36025 ft 455 kts
2026-05-06 12:57 43.85643 -3.16556 36021 ft 456 kts
2026-05-06 12:58 43.91980 -3.16061 36021 ft 456 kts
2026-05-06 12:58 43.98312 -3.15565 36011 ft 456 kts
2026-05-06 12:59 44.04648 -3.15046 36008 ft 457 kts
2026-05-06 12:59 44.10895 -3.13257 35996 ft 459 kts 10°
2026-05-06 13:00 44.17132 -3.11352 36014 ft 459 kts 10°
2026-05-06 13:00 44.23364 -3.09437 36013 ft 458 kts 10°
2026-05-06 13:01 44.29573 -3.07524 36005 ft 458 kts 10°
2026-05-06 13:01 44.35791 -3.05604 36002 ft 458 kts 10°
2026-05-06 13:02 44.42016 -3.03678 36007 ft 458 kts 11°
2026-05-06 13:02 44.45131 -3.02713 36165 ft 459 kts 10°
2026-05-06 13:02 44.48249 -3.01745 36377 ft 459 kts 10°
2026-05-06 13:02 44.51366 -3.00777 36570 ft 460 kts 10°
2026-05-06 13:03 44.54491 -2.99806 36754 ft 460 kts 10°
2026-05-06 13:03 44.57620 -2.98832 36948 ft 461 kts 10°
2026-05-06 13:03 44.60752 -2.97856 37140 ft 461 kts 10°
2026-05-06 13:03 44.63881 -2.96879 37336 ft 461 kts 10°
2026-05-06 13:04 44.67016 -2.95900 37518 ft 461 kts 10°
2026-05-06 13:04 44.70151 -2.94920 37704 ft 462 kts 10°
2026-05-06 13:04 44.73283 -2.93940 37875 ft 461 kts 10°
2026-05-06 13:04 44.76418 -2.92957 38005 ft 461 kts 10°
2026-05-06 13:05 44.79555 -2.91973 38000 ft 462 kts 10°
2026-05-06 13:05 44.85823 -2.90003 37997 ft 461 kts 10°
2026-05-06 13:06 44.92091 -2.88029 37993 ft 461 kts 10°
2026-05-06 13:06 44.98357 -2.86051 37998 ft 461 kts 10°
2026-05-06 13:07 45.04619 -2.84071 37993 ft 461 kts 10°
2026-05-06 13:07 45.10887 -2.82083 37990 ft 461 kts 10°
2026-05-06 13:08 45.17151 -2.80092 37998 ft 461 kts 11°
2026-05-06 13:08 45.23415 -2.78098 37990 ft 461 kts 11°
2026-05-06 13:09 45.29674 -2.76100 37982 ft 461 kts 11°
2026-05-06 13:09 45.35933 -2.74097 37992 ft 461 kts 11°
2026-05-06 13:10 45.42198 -2.72088 37981 ft 461 kts 11°
2026-05-06 13:10 45.48460 -2.70076 37984 ft 462 kts 11°
2026-05-06 13:11 45.54721 -2.68058 37982 ft 462 kts 11°
2026-05-06 13:11 45.60987 -2.66035 37981 ft 461 kts 11°
2026-05-06 13:12 45.67244 -2.64010 37978 ft 461 kts 11°
2026-05-06 13:12 45.73466 -2.61993 37977 ft 461 kts 11°
2026-05-06 13:13 45.79763 -2.59946 37977 ft 461 kts 11°
2026-05-06 13:13 45.85975 -2.57922 37978 ft 461 kts 11°
2026-05-06 13:14 45.92275 -2.55864 37964 ft 461 kts 11°
2026-05-06 13:14 45.98489 -2.53831 37975 ft 461 kts 11°
2026-05-06 13:15 46.04788 -2.51764 37978 ft 461 kts 11°
2026-05-06 13:15 46.10994 -2.49724 37978 ft 461 kts 11°
2026-05-06 13:16 46.17295 -2.47703 37967 ft 460 kts
2026-05-06 13:16 46.23634 -2.46601 37965 ft 460 kts
2026-05-06 13:17 46.29985 -2.45558 37966 ft 459 kts
2026-05-06 13:17 46.36336 -2.44519 37982 ft 459 kts
2026-05-06 13:18 46.42642 -2.43484 37979 ft 459 kts
2026-05-06 13:18 46.48991 -2.42440 37977 ft 459 kts
2026-05-06 13:19 46.55345 -2.41393 37965 ft 459 kts
2026-05-06 13:19 46.61698 -2.40344 37971 ft 460 kts
2026-05-06 13:20 46.68055 -2.39291 37967 ft 460 kts
2026-05-06 13:20 46.74413 -2.38235 37964 ft 460 kts
2026-05-06 13:21 46.80771 -2.37178 37962 ft 460 kts
2026-05-06 13:21 46.87115 -2.35969 37968 ft 460 kts
2026-05-06 13:22 46.93430 -2.34427 37963 ft 460 kts
2026-05-06 13:22 46.99755 -2.32920 37968 ft 460 kts
2026-05-06 13:23 47.06072 -2.31416 37963 ft 460 kts
2026-05-06 13:23 47.12390 -2.29907 37969 ft 460 kts
2026-05-06 13:24 47.18706 -2.28395 37969 ft 460 kts
2026-05-06 13:24 47.25021 -2.26879 37970 ft 460 kts
2026-05-06 13:25 47.31336 -2.25360 37966 ft 460 kts
2026-05-06 13:25 47.37652 -2.23837 37975 ft 460 kts
2026-05-06 13:26 47.43968 -2.22311 37959 ft 460 kts
2026-05-06 13:26 47.50280 -2.20781 37963 ft 460 kts
2026-05-06 13:27 47.56592 -2.19248 37971 ft 460 kts
2026-05-06 13:27 47.62906 -2.17711 37961 ft 460 kts
2026-05-06 13:28 47.69218 -2.16170 37959 ft 460 kts
2026-05-06 13:28 47.75529 -2.14626 37960 ft 460 kts
2026-05-06 13:29 47.81840 -2.13078 37962 ft 460 kts
2026-05-06 13:29 47.88143 -2.11528 37958 ft 459 kts
2026-05-06 13:30 47.93361 -2.10242 37962 ft 460 kts
2026-05-06 13:30 47.99680 -2.08681 37961 ft 460 kts
2026-05-06 13:31 48.05992 -2.07118 37964 ft 460 kts
2026-05-06 13:31 48.12308 -2.05551 37960 ft 460 kts
2026-05-06 13:32 48.18619 -2.03980 37963 ft 460 kts
2026-05-06 13:32 48.24931 -2.02405 37958 ft 460 kts
2026-05-06 13:33 48.31242 -2.00827 37963 ft 460 kts
2026-05-06 13:33 48.37553 -1.99245 37960 ft 459 kts
2026-05-06 13:34 48.43608 -1.97723 37969 ft 460 kts
2026-05-06 13:34 48.46656 -1.96955 37965 ft 459 kts
2026-05-06 13:35 48.52963 -1.95364 37965 ft 460 kts
2026-05-06 13:35 48.59269 -1.93770 37968 ft 460 kts
2026-05-06 13:36 48.65575 -1.92170 37969 ft 460 kts
2026-05-06 13:36 48.71879 -1.90569 37975 ft 460 kts
2026-05-06 13:37 48.78192 -1.88961 37966 ft 459 kts
2026-05-06 13:37 48.84497 -1.87351 37977 ft 460 kts
2026-05-06 13:38 48.90836 -1.86079 37990 ft 459 kts
2026-05-06 13:38 48.97178 -1.84859 37981 ft 459 kts
2026-05-06 13:39 49.03518 -1.83626 37983 ft 459 kts
2026-05-06 13:39 49.09862 -1.82389 37988 ft 460 kts
2026-05-06 13:40 49.16206 -1.81149 37986 ft 460 kts
2026-05-06 13:40 49.22553 -1.79904 37984 ft 460 kts
2026-05-06 13:41 49.28899 -1.78657 37986 ft 460 kts
2026-05-06 13:41 49.35252 -1.77405 37979 ft 460 kts
2026-05-06 13:42 49.41610 -1.76149 37992 ft 461 kts
2026-05-06 13:42 49.47970 -1.74890 37991 ft 461 kts
2026-05-06 13:43 49.54325 -1.73628 37997 ft 461 kts
2026-05-06 13:43 49.60648 -1.72020 37969 ft 462 kts 18°
2026-05-06 13:44 49.66701 -1.68690 37972 ft 463 kts 18°
2026-05-06 13:44 49.72772 -1.65358 37992 ft 463 kts 18°
2026-05-06 13:45 49.78816 -1.62011 37360 ft 459 kts 18°
2026-05-06 13:45 49.84867 -1.58650 35912 ft 458 kts 18°
2026-05-06 13:45 49.87876 -1.56976 35044 ft 461 kts 19°
2026-05-06 13:46 49.90880 -1.55303 34560 ft 455 kts 19°
2026-05-06 13:46 49.93860 -1.53639 33709 ft 457 kts 19°
2026-05-06 13:46 49.96849 -1.51970 33125 ft 453 kts 19°
2026-05-06 13:46 49.99814 -1.50352 32358 ft 452 kts 16°
2026-05-06 13:47 50.02822 -1.48907 31553 ft 453 kts 16°
2026-05-06 13:47 50.05841 -1.47438 30720 ft 455 kts 17°
2026-05-06 13:47 50.08860 -1.45953 29722 ft 456 kts 16°
2026-05-06 13:47 50.11888 -1.44459 28482 ft 458 kts 17°
2026-05-06 13:48 50.14944 -1.42949 27128 ft 465 kts 17°
2026-05-06 13:48 50.18040 -1.41416 26291 ft 464 kts 17°
2026-05-06 13:48 50.21092 -1.39904 25744 ft 457 kts 16°
2026-05-06 13:48 50.24110 -1.38408 25035 ft 458 kts 16°
2026-05-06 13:49 50.27152 -1.36911 24171 ft 459 kts 16°
2026-05-06 13:49 50.30189 -1.35415 23516 ft 455 kts 16°
2026-05-06 13:49 50.33191 -1.33933 22757 ft 451 kts 16°
2026-05-06 13:49 50.36175 -1.32458 22074 ft 447 kts 16°
2026-05-06 13:50 50.39124 -1.30999 21405 ft 443 kts 16°
2026-05-06 13:50 50.42050 -1.29549 20738 ft 439 kts 16°
2026-05-06 13:50 50.44948 -1.28111 20064 ft 436 kts 16°
2026-05-06 13:50 50.47828 -1.26677 19402 ft 433 kts 17°
2026-05-06 13:51 50.50549 -1.24657 18587 ft 436 kts 33°
2026-05-06 13:51 50.52941 -1.21752 17961 ft 432 kts 37°
2026-05-06 13:51 50.55270 -1.18800 17284 ft 428 kts 38°
2026-05-06 13:51 50.57557 -1.15850 16618 ft 424 kts 38°
2026-05-06 13:52 50.59815 -1.12901 16052 ft 419 kts 39°
2026-05-06 13:52 50.62042 -1.09975 15386 ft 416 kts 39°
2026-05-06 13:52 50.64249 -1.07064 14854 ft 411 kts 39°
2026-05-06 13:52 50.66314 -1.04055 14482 ft 403 kts 48°
2026-05-06 13:53 50.68059 -1.00693 14366 ft 389 kts 49°
2026-05-06 13:53 50.69750 -0.97454 14235 ft 376 kts 49°
2026-05-06 13:53 50.71383 -0.94312 14062 ft 365 kts 49°
2026-05-06 13:53 50.72967 -0.91258 13882 ft 355 kts 49°
2026-05-06 13:54 50.74505 -0.88285 13723 ft 345 kts 49°
2026-05-06 13:54 50.75999 -0.85396 13563 ft 335 kts 48°
2026-05-06 13:54 50.77452 -0.82583 13397 ft 325 kts 49°
2026-05-06 13:54 50.78841 -0.79889 13253 ft 316 kts 48°
2026-05-06 13:55 50.80227 -0.77202 13111 ft 307 kts 49°
2026-05-06 13:55 50.81675 -0.74780 12777 ft 303 kts 36°
2026-05-06 13:55 50.83403 -0.72804 12135 ft 311 kts 33°
2026-05-06 13:55 50.85149 -0.70814 11547 ft 316 kts 33°
2026-05-06 13:56 50.86934 -0.68765 10981 ft 318 kts 33°
2026-05-06 13:56 50.88723 -0.66700 10419 ft 319 kts 34°
2026-05-06 13:56 50.90503 -0.64640 9832 ft 314 kts 34°
2026-05-06 13:56 50.92245 -0.62623 9232 ft 309 kts 33°
2026-05-06 13:57 50.93966 -0.60626 8660 ft 304 kts 33°
2026-05-06 13:57 50.95654 -0.58667 8104 ft 298 kts 33°
2026-05-06 13:57 50.97335 -0.56715 7577 ft 292 kts 34°
2026-05-06 13:57 50.98938 -0.54851 7063 ft 287 kts 33°
2026-05-06 13:58 51.00537 -0.52989 6540 ft 283 kts 33°
2026-05-06 13:58 51.02107 -0.51161 6024 ft 278 kts 33°
2026-05-06 13:58 51.03639 -0.49331 5484 ft 274 kts 39°
2026-05-06 13:58 51.04671 -0.46809 4931 ft 277 kts 71°
2026-05-06 13:59 51.05227 -0.43931 4537 ft 266 kts 59°
2026-05-06 13:59 51.06449 -0.41931 4237 ft 248 kts 24°
2026-05-06 13:59 51.08053 -0.41530 4004 ft 231 kts 348°
2026-05-06 13:59 51.09396 -0.42755 3667 ft 226 kts 311°
2026-05-06 14:00 51.09943 -0.45090 3224 ft 234 kts 273°
2026-05-06 14:00 51.09413 -0.47515 3022 ft 234 kts 236°
2026-05-06 14:00 51.08406 -0.49435 3038 ft 219 kts 231°
2026-05-06 14:00 51.07416 -0.51173 3021 ft 204 kts 232°
2026-05-06 14:01 51.06808 -0.53057 2951 ft 187 kts 271°
2026-05-06 14:01 51.07207 -0.54874 2942 ft 173 kts 316°
2026-05-06 14:01 51.08231 -0.55763 3125 ft 171 kts 353°
2026-05-06 14:01 51.09388 -0.55454 3136 ft 173 kts 28°
2026-05-06 14:02 51.10200 -0.54039 3034 ft 180 kts 64°
2026-05-06 14:02 51.10419 -0.52066 3012 ft 184 kts 81°
2026-05-06 14:02 51.10598 -0.50042 3036 ft 186 kts 76°
2026-05-06 14:02 51.10844 -0.48038 3114 ft 184 kts 73°
2026-05-06 14:03 51.11111 -0.46038 3063 ft 185 kts 74°
2026-05-06 14:03 51.11385 -0.44046 3007 ft 184 kts 75°
2026-05-06 14:03 51.11657 -0.42050 2839 ft 184 kts 73°
2026-05-06 14:03 51.11929 -0.40072 2628 ft 182 kts 73°
2026-05-06 14:04 51.12197 -0.38111 2413 ft 179 kts 73°
2026-05-06 14:04 51.12447 -0.36273 2196 ft 163 kts 73°
2026-05-06 14:04 51.12689 -0.34523 1975 ft 161 kts 73°
2026-05-06 14:04 51.12928 -0.32793 1766 ft 155 kts 72°
2026-05-06 14:05 51.13151 -0.31180 1624 ft 147 kts 71°
2026-05-06 14:05 51.13366 -0.29607 1389 ft 143 kts 72°
2026-05-06 14:05 51.13565 -0.28040 1210 ft 149 kts 74°
2026-05-06 14:05 51.13775 -0.26503 1011 ft 140 kts 74°
2026-05-06 14:06 51.13983 -0.25020 798 ft 135 kts 73°
2026-05-06 14:06 51.14186 -0.23592 615 ft 131 kts 76°
2026-05-06 14:06 51.14381 -0.22130 413 ft 135 kts 76°
2026-05-06 14:06 51.14585 -0.20702 240 ft 131 kts 77°
2026-05-06 14:07 51.14765 -0.19407 208 ft 105 kts 78°
2026-05-06 14:07 51.14888 -0.18502 214 ft 62 kts 77°
2026-05-06 14:07 51.14962 -0.18054 213 ft 34 kts 67°
2026-05-06 14:07 51.15059 -0.17770 210 ft 15 kts 32°
2026-05-06 14:08 51.15121 -0.17758 207 ft 6 kts 353°
2026-05-06 14:08 51.15172 -0.17767 207 ft 8 kts 353°
2026-05-06 14:08 51.15238 -0.17777 207 ft 10 kts
2026-05-06 14:08 51.15260 -0.17745 211 ft 2 kts 77°
2026-05-06 14:09 51.15265 -0.17703 206 ft 6 kts 79°
2026-05-06 14:09 51.15280 -0.17595 209 ft 14 kts 78°
2026-05-06 14:09 51.15303 -0.17405 216 ft 16 kts 76°
2026-05-06 14:09 51.15388 -0.17376 206 ft 17 kts 344°
2026-05-06 14:10 51.15533 -0.17426 206 ft 21 kts 349°
2026-05-06 14:10 51.15644 -0.17472 206 ft 19 kts 348°
2026-05-06 14:10 51.15755 -0.17491 209 ft 15 kts
2026-05-06 14:10 51.15828 -0.17510 209 ft 2 kts 348°
2026-05-06 14:11 51.15845 -0.17516 208 ft 0 kts 347°